This demonstration page uses our WeatherBlox Daily Observations layout. Learn more.

Left ArrowRight Arrow

39.12711, -84.51439

Hourly Observations for January 21, 2017

Temp ( °F °C ) Dew Point ( °F °C ) Humidity (%) Winds ( mph kmh ) Pressure ( in mb ) Visibility ( mi km ) Precip ( " mm )
12:45 am 00:45 Mostly Cloudy with Fog 42 5.6 42 5.6 100 100 N N/A 29.80 1009 1 1 N/A
12:53 am 00:53 Mostly Cloudy with Fog 43 6.1 43 6.1 100 100 N N/A 29.76 1008 1 1 N/A
1:00 am 01:00 Mostly Cloudy with Fog 43 6 43 6 100 100 N N/A 29.80 1009 0 0 N/A
1:07 am 01:07 Mostly Cloudy with Fog 44 6.7 44 6.7 100 100 N N/A 29.80 1009 1 1 N/A
1:32 am 01:32 Mostly Cloudy with Mist and Fog 45 7 45 7 100 100 N N/A 29.80 1009 1 2 N/A
1:53 am 01:53 Mostly Cloudy with Mist and Fog 43 6.1 43 6.1 100 100 N N/A 29.76 1008 1 2 N/A
2:05 am 02:05 Mostly Cloudy with Mist and Fog 44 6.7 44 6.7 100 100 N N/A 29.80 1009 2 3 N/A
2:22 am 02:22 Partly Cloudy with Mist and Fog 45 7 45 7 100 100 N N/A 29.80 1009 4 6 N/A
2:53 am 02:53 Partly Cloudy with Mist and Fog 43 6.1 43 6.1 100 100 N N/A 29.76 1008 4 6 N/A
3:01 am 03:01 Mostly Clear with Mist and Fog 44 6.7 44 6.7 100 100 N N/A 29.80 1009 2 2 N/A
3:11 am 03:11 Mostly Clear with Fog 44 6.7 44 6.7 100 100 N N/A 29.80 1009 1 1 N/A
3:53 am 03:53 Partly Cloudy with Fog 43 6.1 43 6.1 100 100 N N/A 29.76 1008 1 1 N/A
4:17 am 04:17 Mostly Clear with Mist and Fog 43 6.1 43 6.1 100 100 N N/A 29.77 1008 2 3 N/A
4:34 am 04:34 Clear with Fog 43 6 43 6 100 100 N N/A 29.77 1008 1 1 N/A
4:43 am 04:43 Clear with Fog 42 5.6 42 5.6 100 100 N N/A 29.77 1008 0 0 N/A
4:53 am 04:53 Clear with Fog 43 6.1 43 6.1 100 100 N N/A 29.73 1007 1 1 N/A
5:14 am 05:14 Mostly Cloudy with Fog 41 5 41 5 100 100 N N/A 29.77 1008 1 1 N/A
5:23 am 05:23 Mostly Cloudy with Fog 41 5 41 5 100 100 N N/A 29.77 1008 0 0 N/A
5:37 am 05:37 Clear with Fog 41 5 41 5 100 100 N N/A 29.77 1008 0 0 N/A
5:51 am 05:51 Mostly Cloudy with Fog 39 4 39 4 100 100 N N/A 29.77 1008 0 0 N/A
5:53 am 05:53 Mostly Cloudy with Fog 40 4.4 40 4.4 100 100 N N/A 29.73 1007 0 0 N/A
6:00 am 06:00 Clear with Fog 41 5 41 5 100 100 N N/A 29.77 1008 1 1 N/A
6:16 am 06:16 Mostly Cloudy with Fog 39 4 39 4 100 100 N N/A 29.77 1008 0 0 N/A
6:28 am 06:28 Mostly Cloudy with Fog 39 4 39 4 100 100 N N/A 29.77 1008 1 1 N/A
6:35 am 06:35 Mostly Cloudy with Fog 40 4.4 40 4.4 100 100 N N/A 29.77 1008 0 0 N/A
6:48 am 06:48 Mostly Cloudy with Mist and Fog 41 5 41 5 100 100 WSW 3 6 29.77 1008 1 1 N/A
6:53 am 06:53 Clear with Fog 41 5 41 5 100 100 N N/A 29.74 1007 10 16 N/A
7:53 am 07:53 Partly Cloudy with Patchy Fog 38 3.3 38 3.3 100 100 N N/A 29.72 1007 10 16 N/A
8:03 am 08:03 Mostly Cloudy with Patchy Fog 39 4 39 4 100 100 N N/A 29.77 1008 10 16 N/A
8:26 am 08:26 Sunny with Patchy Fog 41 5 41 5 100 100 N N/A 29.77 1008 10 16 N/A
8:53 am 08:53 Sunny 43 6.1 43 6.1 100 100 N N/A 29.74 1007 10 16 N/A
9:53 am 09:53 Sunny 46 7.8 46 7.8 100 100 N N/A 29.74 1007 10 16 N/A
10:53 am 10:53 Sunny 50 10 50 10 100 100 WSW 3 6 29.73 1007 10 16 N/A
11:53 am 11:53 Sunny 56 13.3 53 11.7 90 90 N N/A 29.70 1006 9 14 N/A
12:53 pm 12:53 Sunny 61 16.1 55 12.8 81 81 S 5 7 29.67 1005 10 16 N/A
1:53 pm 13:53 Sunny 62 16.7 54 12.2 75 75 S 6 9 29.65 1004 10 16 N/A
2:53 pm 14:53 Sunny 62 16.7 54 12.2 75 75 SSW 3 6 29.63 1003 10 16 N/A
3:53 pm 15:53 Mostly Cloudy 63 17.2 55 12.8 76 76 SSE 8 13 29.63 1003 10 16 N/A
4:53 pm 16:53 Mostly Cloudy 63 17.2 55 12.8 76 76 S 9 15 29.64 1004 10 16 N/A
5:53 pm 17:53 Mostly Cloudy 59 15 54 12 82 82 S 3 6 29.62 1003 10 16 N/A
6:53 pm 18:53 Cloudy 59 15 54 12.2 83 83 N N/A 29.63 1003 10 16 N/A
7:53 pm 19:53 Cloudy 55 12.8 53 11.7 93 93 N N/A 29.64 1004 10 16 N/A
8:53 pm 20:53 Cloudy 54 12.2 53 11.7 97 97 WNW 3 6 29.65 1004 10 16 N/A
9:53 pm 21:53 Cloudy 53 11.7 52 11.1 96 96 N N/A 29.64 1004 10 16 N/A
10:53 pm 22:53 Cloudy 52 11.1 52 11.1 100 100 N N/A 29.66 1005 9 14 N/A
11:53 pm 23:53 Cloudy 51 10.6 51 10.6 100 100 N N/A 29.67 1005 8 13 N/A

Powered by AerisWeather